Location: Robledo de Chavela
(40.5014°N, 4.2377°W)
Time: 17:47:25
(UTC+00:00)

Cosmos 1300 Rocket - Pass Details

Date: 18 April 2024
Orbit: 598 x 623 km, 82.5° (Epoch: 24 May)

Event Time Altitude Azimuth Distance (km) Brightness Sun altitude
Rises 19:44:13 0° 190° (S) 2,861 6.8 -8.8°
Reaches altitude 10° 19:46:25 10° 192° (SSW) 1,965 6.0 -9.2°
Maximum altitude 19:50:46 77° 278° (W) 639 3.8 -10.0°
Drops below altitude 10° 19:55:11 10° 5° (N) 1,995 6.4 -10.7°
Sets 19:57:26 0° 7° (N) 2,908 7.3 -11.1°
